Regional Weather Roundup
Issued by NWS

Home | Current Version | Previous Version | Text Only | Print | Product List | Glossary Off
Versions: 1 2 3 4 5 6 7 8 9 10 11 12 13 14 15 16 17 18 19 20 21 22 23 24 25 26 27 28 29 30 31 32 33 34 35 36 37 38 39 40 41 42 43 44 45 46 47 48 49 50

400
ASUS43 KLMK 080002
RWRKY
KENTUCKY REGIONAL WEATHER ROUNDUP
NATIONAL WEATHER SERVICE LOUISVILLE KY
700 PM EST SUN FEB 07 2016

NOTE "FAIR" INDICATES FEW OR NO CLOUDS BELOW 12,000 FEET
WITH NO SIGNIFICANT WEATHER AND/OR OBSTRUCTIONS TO VISIBILITY.

KYZ001>023-026-027-061>063-070>075-080100-
WESTERN AND SOUTH CENTRAL KENTUCKY

CITY           SKY/WX    TMP DP  RH WIND       PRES   REMARKS
PADUCAH        CLOUDY    51  30  44 SW12      29.91F
HENDERSON      MOCLDY    48  27  43 SW10      29.88F
OWENSBORO      CLOUDY    46  32  58 SW10      29.90F
HOPKINSVILLE   NOT AVBL
BOWLING GREEN  CLEAR     50  22  33 SW7       29.94F
GLASGOW        NOT AVBL
$$

KYZ024-025-028>034-038-045-046-053-080100-
NORTH CENTRAL KENTUCKY

CITY           SKY/WX    TMP DP  RH WIND       PRES   REMARKS
LOUISVILLE/SDF PTCLDY    50  20  30 SW8       29.89S
LOUISVILLE/LOU CLEAR     50  21  32 SW5       29.90S
FORT KNOX      CLEAR     45  22  39 S7        29.89S
$$

KYZ035>037-039>044-047>052-055>060-089>105-080100-
NORTHEAST KENTUCKY

CITY           SKY/WX    TMP DP  RH WIND       PRES   REMARKS
LEXINGTON      PTCLDY    43  21  41 SW8       29.92R
COVINGTON      MOCLDY    47  21  35 SW9       29.87S
FRANKFORT      CLOUDY    44  20  38 S5        29.89F
$$

KYZ054-064>069-076>088-106>120-080100-
SOUTHEAST KENTUCKY

CITY           SKY/WX    TMP DP  RH WIND       PRES   REMARKS
JACKSON        CLEAR     46  19  34 SW5       29.92F
LONDON         CLEAR     46  20  35 W5        29.93F
SOMERSET       NOT AVBL
MIDDLESBORO    NOT AVBL
MONTICELLO     PTCLDY    40  24  53 W12       29.96F WCI  33
$$





USA.gov is the U.S. government's official web portal to all federal, state and local government web resources and services.